Starlink 35726

operational
NORAD ID: 66280 Int'l Des: 2025-247 Owner: SPXS Country: US Constellation: starlink
NOTLE

Starlink 35726について

説明を読み込み中...

リアルタイム位置

3D地球を読み込み中...

次回通過

高度履歴

Altitude vs Time

uPlot chart will show altitude changes over time

軌道要素

1 66280U 25247R 25352.00807323 .00017954 00000-0 45773-3 0 9997
2 66280 53.1586 212.5606 0001217 87.4712 272.6433 15.39623577 8502
Epoch: Dec 18, 2025 • Age: 15 hours

現在のステータス

高度 447.1 km
速度 7.65 km/s
衛星直下点 13.01°N, 68.44°E
打ち上げ日 Oct 31, 2025
運用期間 0.1 years
タイプ internet

技術仕様

分類 Payload
質量 575.00 kg
乾燥質量 530.00 kg
総質量 575.00 kg
長さ 0.30 m
直径 4.10 m
スパン 29.00 m
形状 Box + pan
製造者 SPXS
バスタイプ Starlink V2MO
フェーズステータス In Orbit
所有者/国 SPXS/US

大規模コンステレーション

Loading constellations...